Regional Weather Roundup
Issued by NWS Upton, NY

Current Version | Previous Version | Graphics & Text | Print | Product List | Glossary Off
Versions: 1 2 3 4 5 6 7 8 9 10 11 12 13 14 15 16 17 18 19 20 21 22 23 24 25 26 27 28 29 30 31 32 33 34 35 36 37 38 39 40 41 42 43 44 45 46 47 48 49 50

000
ASUS41 KOKX 282108
RWROKX

REGIONAL WEATHER ROUNDUP
NATIONAL WEATHER SERVICE NEW YORK NY
500 PM EDT TUE JUL 28 2015

NOTE: "FAIR" INDICATES FEW OR NO CLOUDS BELOW 12,000 FEET WITH NO
SIGNIFICANT WEATHER AND/OR OBSTRUCTIONS TO VISIBILITY.

NYZ071-072-176-178-NJZ106-104-282200-
NEW YORK CITY METRO AREA


CITY           SKY/WX    TMP DP  RH WIND       PRES   REMARKS
CENTRAL PARK   MOSUNNY   93  59  31 NE6       29.97S HX  92
LAGUARDIA APRT CLOUDY    91  64  40 SE12      29.94R HX  92
KENNEDY INTL   PTSUNNY   85  71  63 S14       29.96S HX  90
NEWARK/LIBERTY MOSUNNY   91  63  39 S8        29.94R HX  92
BRNX BOT. GARD   N/A     93  59  31 E5        29.96S HX  92
TETERBORO      SUNNY     94  54  25 N5        29.92S HX  92
$$

NYZ177-179-078>081-282200-
LONG ISLAND NEW YORK

CITY           SKY/WX    TMP DP  RH WIND       PRES   REMARKS
FARMINGDALE    SUNNY     87  71  58 S9        29.96S HX  93
ISLIP          PTSUNNY   88  69  53 SW12      29.94S HX  92
SHIRLEY        MOSUNNY   87  69  54 SW10      29.96S HX  91
WESTHAMPTON    MOSUNNY   85  69  58 SW16      29.96F
MONTAUK POINT    N/A     83  71  67 SW6       29.95F
$$

NYZ052-065-067-282200-
HUDSON VALLEY

CITY           SKY/WX    TMP DP  RH WIND       PRES   REMARKS
WHITE PLAINS   MOSUNNY   89  61  38 NW6       29.96S
NEWBURGH       PTSUNNY   90  64  43 CALM      29.97S HX  91
MONTGOMERY     MOSUNNY   91  64  40 MISG      29.95F HX  92
POUGHKEEPSIE   MOSUNNY   92  63  38 W6        29.93F HX  93
ALBANY         LGT RAIN  81  67  62 NE13      29.95R
$$

NJZ001-105-106-008-010-013-015-019>022-104-282200-
NEW JERSEY

CITY           SKY/WX    TMP DP  RH WIND       PRES   REMARKS
NEWARK/LIBERTY MOSUNNY   91  63  39 S8        29.94R HX  92
TETERBORO      SUNNY     94  54  25 N5        29.92S HX  92
CALDWELL       SUNNY     93  58  30 MISG      29.95S HX  92
MORRISTOWN     MOSUNNY   91  61  35 N3        29.95S HX  91
SOMERVILLE     SUNNY     94  59  31 NW6       29.93S HX  93
SUSSEX         SUNNY     90  61  37 VRB3      29.97F HX  90
ANDOVER          N/A     90  62  39 VRB3      29.98F HX  90
TRENTON        SUNNY     92  59  33 VRB7      29.94F HX  91
MILLVILLE      SUNNY     88  71  57 SW7       29.96S HX  94
ATLANTIC CITY  PTSUNNY   87  73  62 S9        29.96S HX  94
WRIGHTSTOWN    MOSUNNY   91  66  44 CALM      29.92F HX  93
TOMS RIVER     MOSUNNY   88  73  62 S10       29.96F HX  96
BELMAR         SUNNY     88  70  55 S9        29.96F HX  92
$$

PAZ047>061-062-071-282200-
EASTERN PENNSYLVANIA

CITY           SKY/WX    TMP DP  RH WIND       PRES   REMARKS
PHILADELPHIA   PTSUNNY   90  68  48 NW8       29.95F HX  94
ALLENTOWN      SUNNY     91  62  37 N5        29.96F HX  91
SCRANTON       SUNNY     90  61  37 W7        30.00F HX  90
$$

CTZ002-004>006-009-010-012-RIZ004-006-007-MAZ004-011-015-282200-
SOUTHERN NEW ENGLAND
 IN CT

CITY           SKY/WX    TMP DP  RH WIND       PRES   REMARKS
BRADLEY INTL   PTSUNNY   92  64  39 VRB5      29.91F HX  93
HARTFORD       MOSUNNY   91  61  36 NW10      29.91F HX  91
DANBURY        MOSUNNY   88  63  43 N8        29.97S
WTRBRY/OXFORD  PTSUNNY   84  64  51 NW7       30.01R
BRIDGEPORT     SUNNY     88  68  51 SW7       29.94S HX  91
MERIDEN        MOSUNNY   92  64  39 W7        29.93R HX  93
NEW HAVEN      PTSUNNY   85  67  54 SW9       29.93S
CHESTER        FAIR      84  70  61 SW7       29.96S
GROTON         MOSUNNY   82  68  62 SW9       29.92F
WILLIMANTIC    MOSUNNY   90  64  42 NW7       29.92S HX  91

 IN RI

CITY           SKY/WX    TMP DP  RH WIND       PRES   REMARKS
PROVIDENCE     PTSUNNY   78  66  66 E15       29.93R THUNDER
BLOCK ISLAND   PTSUNNY   79  72  78 SW18      29.95S
WESTERLY       PTSUNNY   83  71  67 SW7       29.93F

 IN MA

CITY           SKY/WX    TMP DP  RH WIND       PRES   REMARKS
BOSTON         PTSUNNY   77  70  79 E9        29.93S
WORCESTER      PTSUNNY   74  64  71 W3        29.99R
WESTFIELD      SUNNY     90  64  42 VRB3      29.92F HX  91
PROVINCETOWN   SUNNY     81  68  65 E8        29.94S
NANTUCKET      CLOUDY    73  69  87 S8        29.96S
$$

ANZ330-335-338-340-345-350-353-355-282200-
COASTAL MARINE OBSERVATIONS


STATION/POSITION TIME  SKY/WX   TEMP    WIND        PRES    VSBY  WAVE
                                AIR SEA DIR/SP/G                  HT/PER
                 (UTC)          (F)     (DEG/KT/KT) (MB)    (MI)  (FT/S)
NY HARB ENTRANCE 2050            78 77  200/ 12/ 12 1013.9          2/ 6
4S FIRE IS       NOT AVBL
20S FIRE ISLAND  1950            76 74  210/  8/ 10 1014.3          2/ 8
GREAT SOUTH BAY  2000            79 81  230/ 12/ 14   N/A
23SW MTP         2050            75 75  240/ 10/ 12 1014.0          2/11
HUDSON CANYON    NOT AVBL
KINGS POINT      2000            91 78   10/  3/  5 1013.3
CENTRAL LI SOUND NOT AVBL
EASTERN LI SOUND 2000            76 71  260/  6/  8   N/A
ROBBINS REEF     2000            81     160/ 16/ 18 1012.7
$$


>>>>>>>>>>>>>>>>>>>>>>>>>>>> KEY <<<<<<<<<<<<<<<<<<<<<<<<<<<
>                                                          <
>     SKY/WX - SKY CONDITION/PRESENT WEATHER               <
>     TMP    - TEMPERATURE IN FAHRENHEIT                   <
>     DP     - DEWPOINT IN FAHRENHEIT                      <
>     RH     - RELATIVE HUMIDITY IN PERCENT                <
>     WIND   - DIRECTION AND SPEED IN MPH                  <
>     PRES   - MEAN SEA LEVEL PRESSURE IN INCHES OF HG     <
>     WCI    - WIND CHILL INDEX                            <
>     VSB    - VISIBILITY IN MILES                         <
>     HX     - HEAT INDEX                                  <
>     TC     - TEMPERATURE IN CELSIUS                      <
>     VRB    - VARIABLE WIND DIRECTION                     <
>                                                          <
>>>>>>>>>>>>>>>>>>>>>>>>>>>> KEY <<<<<<<<<<<<<<<<<<<<<<<<<<<





USA.gov is the U.S. government's official web portal to all federal, state and local government web resources and services.